<?xml version="1.0" encoding="UTF-8" standalone="no" ?>
<gpx xmlns="http://www.topografix.com/GPX/1/1" xmlns:xsi="http://www.w3.org/2001/XMLSchema-instance" xsi:schemaLocation="http://www.topografix.com/GPX/1/1 http://www.topografix.com/GPX/1/1/gpx.xsd" version="1.1" creator="VisuGPX - https://www.visugpx.com">
  <metadata>
    <name>2013 - 05 - Lot - 2 - Pech Merle - Arcambal</name>
    <desc><![CDATA[Pech Merle Arcambal 
En projet]]></desc>
  </metadata>
  <trk>
    <name><![CDATA[2-18kmd-pech merle-arcambal]]></name>
    <trkseg>
      <trkpt lat="44.50577" lon="1.62316">
        <ele>333.5</ele>
        <time>2013-05-03T18:34:30Z</time>
      </trkpt>
      <trkpt lat="44.50611" lon="1.62252">
        <ele>335.2</ele>
        <time>2013-05-03T18:34:30Z</time>
      </trkpt>
      <trkpt lat="44.50641" lon="1.61989">
        <ele>335.5</ele>
        <time>2013-05-03T18:34:30Z</time>
      </trkpt>
      <trkpt lat="44.50654" lon="1.61859">
        <ele>335</ele>
        <time>2013-05-03T18:34:30Z</time>
      </trkpt>
      <trkpt lat="44.5066" lon="1.61544">
        <ele>328.1</ele>
        <time>2013-05-03T18:34:30Z</time>
      </trkpt>
      <trkpt lat="44.50683" lon="1.6144">
        <ele>332.3</ele>
        <time>2013-05-03T18:34:30Z</time>
      </trkpt>
      <trkpt lat="44.50637" lon="1.61259">
        <ele>329.8</ele>
        <time>2013-05-03T18:34:30Z</time>
      </trkpt>
      <trkpt lat="44.50647" lon="1.61192">
        <ele>328.4</ele>
        <time>2013-05-03T18:34:30Z</time>
      </trkpt>
      <trkpt lat="44.50635" lon="1.61029">
        <ele>324.1</ele>
        <time>2013-05-03T18:34:30Z</time>
      </trkpt>
      <trkpt lat="44.50674" lon="1.60895">
        <ele>324.1</ele>
        <time>2013-05-03T18:34:30Z</time>
      </trkpt>
      <trkpt lat="44.50674" lon="1.60472">
        <ele>322.1</ele>
        <time>2013-05-03T18:34:30Z</time>
      </trkpt>
      <trkpt lat="44.50728" lon="1.60183">
        <ele>319.5</ele>
        <time>2013-05-03T18:34:30Z</time>
      </trkpt>
      <trkpt lat="44.50715" lon="1.59897">
        <ele>322.9</ele>
        <time>2013-05-03T18:34:30Z</time>
      </trkpt>
      <trkpt lat="44.50758" lon="1.59608">
        <ele>312</ele>
        <time>2013-05-03T18:34:30Z</time>
      </trkpt>
      <trkpt lat="44.50855" lon="1.59462">
        <ele>302.9</ele>
        <time>2013-05-03T18:34:30Z</time>
      </trkpt>
      <trkpt lat="44.50889" lon="1.59321">
        <ele>305.1</ele>
        <time>2013-05-03T18:34:30Z</time>
      </trkpt>
      <trkpt lat="44.50856" lon="1.59121">
        <ele>310.1</ele>
        <time>2013-05-03T18:34:30Z</time>
      </trkpt>
      <trkpt lat="44.50825" lon="1.58947">
        <ele>304.4</ele>
        <time>2013-05-03T18:34:30Z</time>
      </trkpt>
      <trkpt lat="44.50854" lon="1.58843">
        <ele>296.9</ele>
        <time>2013-05-03T18:34:30Z</time>
      </trkpt>
      <trkpt lat="44.5093" lon="1.58753">
        <ele>292.6</ele>
        <time>2013-05-03T18:34:30Z</time>
      </trkpt>
      <trkpt lat="44.50784" lon="1.58384">
        <ele>301.6</ele>
        <time>2013-05-03T18:34:30Z</time>
      </trkpt>
      <trkpt lat="44.50555" lon="1.58261">
        <ele>277.7</ele>
        <time>2013-05-03T18:34:30Z</time>
      </trkpt>
      <trkpt lat="44.50419" lon="1.58089">
        <ele>275.2</ele>
        <time>2013-05-03T18:34:30Z</time>
      </trkpt>
      <trkpt lat="44.50179" lon="1.57955">
        <ele>284.5</ele>
        <time>2013-05-03T18:34:30Z</time>
      </trkpt>
      <trkpt lat="44.50016" lon="1.57742">
        <ele>297.6</ele>
        <time>2013-05-03T18:34:30Z</time>
      </trkpt>
      <trkpt lat="44.49808" lon="1.57619">
        <ele>296.6</ele>
        <time>2013-05-03T18:34:30Z</time>
      </trkpt>
      <trkpt lat="44.49781" lon="1.57482">
        <ele>297.4</ele>
        <time>2013-05-03T18:34:30Z</time>
      </trkpt>
      <trkpt lat="44.49593" lon="1.5714">
        <ele>278.2</ele>
        <time>2013-05-03T18:34:30Z</time>
      </trkpt>
      <trkpt lat="44.49426" lon="1.57146">
        <ele>265.9</ele>
        <time>2013-05-03T18:34:30Z</time>
      </trkpt>
      <trkpt lat="44.49197" lon="1.57057">
        <ele>264</ele>
        <time>2013-05-03T18:34:30Z</time>
      </trkpt>
      <trkpt lat="44.49138" lon="1.57002">
        <ele>260.4</ele>
        <time>2013-05-03T18:34:30Z</time>
      </trkpt>
      <trkpt lat="44.48934" lon="1.57016">
        <ele>256.1</ele>
        <time>2013-05-03T18:34:30Z</time>
      </trkpt>
      <trkpt lat="44.48807" lon="1.57095">
        <ele>251.3</ele>
        <time>2013-05-03T18:34:30Z</time>
      </trkpt>
      <trkpt lat="44.48624" lon="1.57079">
        <ele>252</ele>
        <time>2013-05-03T18:34:30Z</time>
      </trkpt>
      <trkpt lat="44.48526" lon="1.57077">
        <ele>248.3</ele>
        <time>2013-05-03T18:34:30Z</time>
      </trkpt>
      <trkpt lat="44.48426" lon="1.5716">
        <ele>248.9</ele>
        <time>2013-05-03T18:34:30Z</time>
      </trkpt>
      <trkpt lat="44.48478" lon="1.56966">
        <ele>240.8</ele>
        <time>2013-05-03T18:34:30Z</time>
      </trkpt>
      <trkpt lat="44.48607" lon="1.56824">
        <ele>240.8</ele>
        <time>2013-05-03T18:34:30Z</time>
      </trkpt>
      <trkpt lat="44.48682" lon="1.56541">
        <ele>210.5</ele>
        <time>2013-05-03T18:34:30Z</time>
      </trkpt>
      <trkpt lat="44.48737" lon="1.56448">
        <ele>209.3</ele>
        <time>2013-05-03T18:34:30Z</time>
      </trkpt>
      <trkpt lat="44.48877" lon="1.56402">
        <ele>244.1</ele>
        <time>2013-05-03T18:34:30Z</time>
      </trkpt>
      <trkpt lat="44.49025" lon="1.56281">
        <ele>247.2</ele>
        <time>2013-05-03T18:34:30Z</time>
      </trkpt>
      <trkpt lat="44.48945" lon="1.55949">
        <ele>231.8</ele>
        <time>2013-05-03T18:34:30Z</time>
      </trkpt>
      <trkpt lat="44.48855" lon="1.55902">
        <ele>224</ele>
        <time>2013-05-03T18:34:30Z</time>
      </trkpt>
      <trkpt lat="44.48731" lon="1.55681">
        <ele>178.5</ele>
        <time>2013-05-03T18:34:30Z</time>
      </trkpt>
      <trkpt lat="44.48915" lon="1.55782">
        <ele>203.2</ele>
        <time>2013-05-03T18:34:30Z</time>
      </trkpt>
      <trkpt lat="44.48925" lon="1.55734">
        <ele>191</ele>
        <time>2013-05-03T18:34:30Z</time>
      </trkpt>
      <trkpt lat="44.48869" lon="1.55709">
        <ele>200.6</ele>
        <time>2013-05-03T18:34:30Z</time>
      </trkpt>
      <trkpt lat="44.48804" lon="1.55528">
        <ele>166.4</ele>
        <time>2013-05-03T18:34:30Z</time>
      </trkpt>
      <trkpt lat="44.48656" lon="1.55501">
        <ele>140.7</ele>
        <time>2013-05-03T18:34:30Z</time>
      </trkpt>
      <trkpt lat="44.48815" lon="1.55472">
        <ele>148.7</ele>
        <time>2013-05-03T18:34:30Z</time>
      </trkpt>
      <trkpt lat="44.48729" lon="1.55425">
        <ele>139.3</ele>
        <time>2013-05-03T18:34:30Z</time>
      </trkpt>
      <trkpt lat="44.48822" lon="1.55413">
        <ele>139.5</ele>
        <time>2013-05-03T18:34:30Z</time>
      </trkpt>
      <trkpt lat="44.487" lon="1.55348">
        <ele>134.5</ele>
        <time>2013-05-03T18:34:30Z</time>
      </trkpt>
      <trkpt lat="44.48585" lon="1.55294">
        <ele>132</ele>
        <time>2013-05-03T18:34:30Z</time>
      </trkpt>
      <trkpt lat="44.48555" lon="1.55224">
        <ele>142.4</ele>
        <time>2013-05-03T18:34:30Z</time>
      </trkpt>
      <trkpt lat="44.48478" lon="1.55177">
        <ele>151.6</ele>
        <time>2013-05-03T18:34:30Z</time>
      </trkpt>
      <trkpt lat="44.48388" lon="1.55145">
        <ele>174.8</ele>
        <time>2013-05-03T18:34:30Z</time>
      </trkpt>
      <trkpt lat="44.48332" lon="1.55164">
        <ele>158</ele>
        <time>2013-05-03T18:34:30Z</time>
      </trkpt>
      <trkpt lat="44.48115" lon="1.55534">
        <ele>141.6</ele>
        <time>2013-05-03T18:34:30Z</time>
      </trkpt>
      <trkpt lat="44.48066" lon="1.55461">
        <ele>128.1</ele>
        <time>2013-05-03T18:34:30Z</time>
      </trkpt>
      <trkpt lat="44.47971" lon="1.55503">
        <ele>132.4</ele>
        <time>2013-05-03T18:34:30Z</time>
      </trkpt>
      <trkpt lat="44.47908" lon="1.55615">
        <ele>148.1</ele>
        <time>2013-05-03T18:34:30Z</time>
      </trkpt>
      <trkpt lat="44.47813" lon="1.55649">
        <ele>148.3</ele>
        <time>2013-05-03T18:34:30Z</time>
      </trkpt>
      <trkpt lat="44.47731" lon="1.5571">
        <ele>152.5</ele>
        <time>2013-05-03T18:34:30Z</time>
      </trkpt>
      <trkpt lat="44.47638" lon="1.55685">
        <ele>175.5</ele>
        <time>2013-05-03T18:34:30Z</time>
      </trkpt>
      <trkpt lat="44.47581" lon="1.55512">
        <ele>170</ele>
        <time>2013-05-03T18:34:30Z</time>
      </trkpt>
      <trkpt lat="44.47454" lon="1.55432">
        <ele>169.8</ele>
        <time>2013-05-03T18:34:30Z</time>
      </trkpt>
      <trkpt lat="44.47315" lon="1.55408">
        <ele>169.4</ele>
        <time>2013-05-03T18:34:30Z</time>
      </trkpt>
      <trkpt lat="44.47207" lon="1.55391">
        <ele>166.7</ele>
        <time>2013-05-03T18:34:30Z</time>
      </trkpt>
      <trkpt lat="44.47154" lon="1.55433">
        <ele>183</ele>
        <time>2013-05-03T18:34:30Z</time>
      </trkpt>
      <trkpt lat="44.47072" lon="1.55434">
        <ele>194.4</ele>
        <time>2013-05-03T18:34:30Z</time>
      </trkpt>
      <trkpt lat="44.47034" lon="1.55382">
        <ele>186.1</ele>
        <time>2013-05-03T18:34:30Z</time>
      </trkpt>
      <trkpt lat="44.46842" lon="1.55281">
        <ele>189</ele>
        <time>2013-05-03T18:34:30Z</time>
      </trkpt>
      <trkpt lat="44.46792" lon="1.55271">
        <ele>200.6</ele>
        <time>2013-05-03T18:34:30Z</time>
      </trkpt>
      <trkpt lat="44.46683" lon="1.55176">
        <ele>192</ele>
        <time>2013-05-03T18:34:30Z</time>
      </trkpt>
      <trkpt lat="44.46627" lon="1.55177">
        <ele>189.1</ele>
        <time>2013-05-03T18:34:30Z</time>
      </trkpt>
      <trkpt lat="44.46521" lon="1.55275">
        <ele>191.6</ele>
        <time>2013-05-03T18:34:30Z</time>
      </trkpt>
      <trkpt lat="44.46447" lon="1.55309">
        <ele>196.8</ele>
        <time>2013-05-03T18:34:30Z</time>
      </trkpt>
      <trkpt lat="44.46351" lon="1.55555">
        <ele>220.5</ele>
        <time>2013-05-03T18:34:30Z</time>
      </trkpt>
      <trkpt lat="44.4627" lon="1.55649">
        <ele>228.3</ele>
        <time>2013-05-03T18:34:30Z</time>
      </trkpt>
      <trkpt lat="44.4627" lon="1.55649">
        <ele>228.3</ele>
        <time>2013-05-03T18:34:30Z</time>
      </trkpt>
      <trkpt lat="44.46178" lon="1.55876">
        <ele>224.1</ele>
        <time>2013-05-03T18:34:30Z</time>
      </trkpt>
      <trkpt lat="44.46084" lon="1.55981">
        <ele>234.2</ele>
        <time>2013-05-03T18:34:30Z</time>
      </trkpt>
      <trkpt lat="44.46029" lon="1.56126">
        <ele>239.6</ele>
        <time>2013-05-03T18:34:30Z</time>
      </trkpt>
      <trkpt lat="44.46058" lon="1.56185">
        <ele>241.9</ele>
        <time>2013-05-03T18:34:30Z</time>
      </trkpt>
      <trkpt lat="44.46046" lon="1.56329">
        <ele>254.8</ele>
        <time>2013-05-03T18:34:30Z</time>
      </trkpt>
      <trkpt lat="44.45966" lon="1.56275">
        <ele>257.1</ele>
        <time>2013-05-03T18:34:30Z</time>
      </trkpt>
      <trkpt lat="44.45759" lon="1.5653">
        <ele>286.5</ele>
        <time>2013-05-03T18:34:30Z</time>
      </trkpt>
      <trkpt lat="44.45646" lon="1.56416">
        <ele>280.5</ele>
        <time>2013-05-03T18:34:30Z</time>
      </trkpt>
      <trkpt lat="44.45488" lon="1.56156">
        <ele>288.7</ele>
        <time>2013-05-03T18:34:30Z</time>
      </trkpt>
      <trkpt lat="44.45383" lon="1.55939">
        <ele>290.1</ele>
        <time>2013-05-03T18:34:30Z</time>
      </trkpt>
      <trkpt lat="44.45401" lon="1.5579">
        <ele>283.2</ele>
        <time>2013-05-03T18:34:30Z</time>
      </trkpt>
      <trkpt lat="44.45359" lon="1.55524">
        <ele>292</ele>
        <time>2013-05-03T18:34:30Z</time>
      </trkpt>
      <trkpt lat="44.45381" lon="1.55272">
        <ele>286.8</ele>
        <time>2013-05-03T18:34:30Z</time>
      </trkpt>
      <trkpt lat="44.45422" lon="1.55057">
        <ele>287.7</ele>
        <time>2013-05-03T18:34:30Z</time>
      </trkpt>
      <trkpt lat="44.45498" lon="1.549">
        <ele>283.1</ele>
        <time>2013-05-03T18:34:30Z</time>
      </trkpt>
      <trkpt lat="44.455" lon="1.54804">
        <ele>284</ele>
        <time>2013-05-03T18:34:30Z</time>
      </trkpt>
      <trkpt lat="44.45639" lon="1.54594">
        <ele>287.4</ele>
        <time>2013-05-03T18:34:30Z</time>
      </trkpt>
      <trkpt lat="44.45834" lon="1.54429">
        <ele>282</ele>
        <time>2013-05-03T18:34:30Z</time>
      </trkpt>
      <trkpt lat="44.45947" lon="1.54316">
        <ele>279</ele>
        <time>2013-05-03T18:34:30Z</time>
      </trkpt>
      <trkpt lat="44.4597" lon="1.54156">
        <ele>278.5</ele>
        <time>2013-05-03T18:34:30Z</time>
      </trkpt>
      <trkpt lat="44.45963" lon="1.53975">
        <ele>274.6</ele>
        <time>2013-05-03T18:34:30Z</time>
      </trkpt>
      <trkpt lat="44.46025" lon="1.53782">
        <ele>243.1</ele>
        <time>2013-05-03T18:34:30Z</time>
      </trkpt>
      <trkpt lat="44.45965" lon="1.53534">
        <ele>212</ele>
        <time>2013-05-03T18:34:30Z</time>
      </trkpt>
      <trkpt lat="44.46018" lon="1.53504">
        <ele>205.7</ele>
        <time>2013-05-03T18:34:30Z</time>
      </trkpt>
      <trkpt lat="44.46048" lon="1.53315">
        <ele>198.9</ele>
        <time>2013-05-03T18:34:30Z</time>
      </trkpt>
      <trkpt lat="44.46049" lon="1.5307">
        <ele>198.5</ele>
        <time>2013-05-03T18:34:30Z</time>
      </trkpt>
      <trkpt lat="44.45984" lon="1.52908">
        <ele>200</ele>
        <time>2013-05-03T18:34:30Z</time>
      </trkpt>
      <trkpt lat="44.45873" lon="1.52747">
        <ele>178.5</ele>
        <time>2013-05-03T18:34:30Z</time>
      </trkpt>
      <trkpt lat="44.45839" lon="1.52562">
        <ele>167.1</ele>
        <time>2013-05-03T18:34:30Z</time>
      </trkpt>
      <trkpt lat="44.4582" lon="1.52385">
        <ele>158.3</ele>
        <time>2013-05-03T18:34:30Z</time>
      </trkpt>
      <trkpt lat="44.45831" lon="1.52195">
        <ele>149.1</ele>
        <time>2013-05-03T18:34:30Z</time>
      </trkpt>
      <trkpt lat="44.45829" lon="1.51923">
        <ele>143.3</ele>
        <time>2013-05-03T18:34:30Z</time>
      </trkpt>
      <trkpt lat="44.45841" lon="1.51716">
        <ele>137</ele>
        <time>2013-05-03T18:34:30Z</time>
      </trkpt>
      <trkpt lat="44.45761" lon="1.51639">
        <ele>126.1</ele>
        <time>2013-05-03T18:34:30Z</time>
      </trkpt>
      <trkpt lat="44.45781" lon="1.51588">
        <ele>127</ele>
        <time>2013-05-03T18:34:30Z</time>
      </trkpt>
      <trkpt lat="44.45867" lon="1.51609">
        <ele>127.9</ele>
        <time>2013-05-03T18:34:30Z</time>
      </trkpt>
      <trkpt lat="44.45927" lon="1.51728">
        <ele>135</ele>
        <time>2013-05-03T18:34:30Z</time>
      </trkpt>
      <trkpt lat="44.46048" lon="1.51625">
        <ele>120.9</ele>
        <time>2013-05-03T18:34:30Z</time>
      </trkpt>
    </trkseg>
  </trk>
</gpx>